WESTFORD NEEDLES, 2997

Orbit data source: Space-Track

WESTFORD NEEDLES, 2997 is space debris in LEO originally from a launch on Thu, 09 May 1963 UTC launched from the Air Force Western Test Range (AFWTR). Debris objects in space refer to the collection of defunct objects orbiting the Earth. Examples of debris include non-operational satellites, rocket bodies, and fragments generated from explosions, collisions, or faulty payload assembly.

Loading next visibility...
Identifier
2997, 1963-014AU
Orbit
LEO
Country
Flag of USUS
Related business
Manufacturer
Unknown
Mission
Spacecraft
Bus & Motor
Unknown
Mass
Unknown
Launch date (UTC)
1963-05-09 (63 years ago)
Launch vehicle
Unknown
Launch site
Air Force Western Test Range (AFWTR)
Object type
Payload
Rocket body
Debris
Shape & HBR
Unknown shape, 0.3 m
Radar Cross Section
Medium (>0.1 m² and <1 m²)

Expand to show TLE details & history
Last TLE update: 3 days ago

TLE from 3 days ago
0 WESTFORD NEEDLES
1 02997U 63014AU  26138.51441341  .00000257  00000-0  64721-1 0  9999
2 02997  86.7732 168.5689 0976801 270.0025  78.9087  8.78112587313869
Epoch: 2026-05-18T12:20Z
TLE epoch observation values (Epoch: 2026-05-18T12:20:45.318Z)
Latitude
-0.00002°
Longitude
107.1785°
Altitude
3,455.162 km
Speed
6.397 km/s
True Right ascension
11h 14m 16s
True Declination
0° 00' 00"
Sunlit
Object was in daylight at epoch
Visualization orbit readout
Latitude
Unknown
Longitude
Unknown
Altitude
Unknown
Speed
Unknown
Apparent Right ascension
Unknown
Apparent Declination
Unknown
Sunlit
N/A
Visualization observer readout
Local Sidereal Time
20:15:19
Azimuth
Unknown
Elevation
Unknown
Doppler factor
Unknown
Orbital elements
Apogee altitude
4,513.175 km
Perigee altitude
2,574.788 km
Semi-major axis
9,922.118 km
Eccentricity
0.09768
Inclination
86.7732°
RAAN
168.5689°
Arg. of periapsis
270.0025°
True anomaly
90.0854°
Mean anomaly
78.9087°
Eccentric anomaly
84.4794°
Mean motion
2.19602 °/min
Orbital period
163.93 mins
BSTAR
0.064721
Loading maneuver chart data...
Computing Atmospheric mass density...

Documentation

Showing up to 5 results
|